Regional Weather Roundup
Issued by NWS

Home | Current Version | Previous Version | Graphics & Text | Print | Product List | Glossary On
Versions: 1 2 3 4 5 6 7 8 9 10 11 12 13 14 15 16 17 18 19 20 21 22 23 24 25 26 27
000
ASUS45 KTFX 192310
RWRMT
MONTANA REGIONAL WEATHER ROUNDUP
NATIONAL WEATHER SERVICE GREAT FALLS MT
400 PM MST SUN FEB 19 2017

NOTE: "FAIR" INDICATES FEW OR NO CLOUDS BELOW 12000 FEET WITH NO
SIGNIFICANT WEATHER AND/OR OBSTRUCTIONS TO VISIBILITY.

MTZ001>007-043-200000-
WEST OF THE DIVIDE

CITY           SKY/WX    TMP DP  RH WIND       PRES   REMARKS
KALISPELL      PTSUNNY   40  32  73 S9        29.52S
MISSOULA       CLOUDY    40  32  73 NW7       29.55R
BUTTE          CLOUDY    42  23  46 SE3       29.53R
MULLAN PASS    LGT SNOW  27  27 100 VRB5G21   29.49R VSB 1
ANACONDA         N/A     45  18  33 W12       29.53R
DEER LODGE       N/A     43  30  61 CALM      29.55R
EUREKA           N/A     43  34  70 CALM      29.52R
HAMILTON         N/A     45  25  45 W13G18    29.53R
LIBBY            N/A     41  36  81 CALM      29.52R
PLAINS           N/A     42  31  65 E2        29.58S
$$

MTZ008-052>055-200000-
SOUTHWEST MONTANA

CITY           SKY/WX    TMP DP  RH WIND       PRES   REMARKS
BOZEMAN        CLOUDY    39  34  82 W3        29.57S
DILLON         CLOUDY    40  27  59 S8        29.54R
W YELLOWSTONE  LGT SNOW  32  28  86 SW8       29.66R WCI  25
ENNIS          SUNNY     45  27  49 S30G37    29.59S
THREE FORKS      N/A     41  34  76 S7        29.60S
TWIN BRIDGES     N/A     43  28  55 E10       29.59S
$$

MTZ009-010-012-014-046-048-049-054-200000-
EAST SLOPES AND CENTRAL MONTANA

CITY           SKY/WX    TMP DP  RH WIND       PRES   REMARKS
CUT BANK       MOSUNNY   45  22  40 W22       29.48R
GREAT FALLS    MOSUNNY   51  20  29 SW18      29.50R
MALMSTROM AFB  MOSUNNY   51  22  32 SW24G31   29.50R
HELENA         PTSUNNY   40  35  83 SE8       29.52S
AUGUSTA          N/A     44  15  31 W12       29.48R
BOWMANS CRNR     N/A     47  19  32 SW20G25   29.47S
CHOTEAU          N/A     52  18  25 W10       29.50R
CONRAD           N/A     45  32  60 W7        29.56R
POWER            N/A     50  20  31 SW17G24   29.47R
RAYNESFORD       N/A     50  25  38 W22       29.50R
ULM              N/A     51  21  31 MISG      29.51R
$$

MTZ011-013-016-021-045-047-050-051-200000-
NORTH CENTRAL MONTANA

CITY           SKY/WX    TMP DP  RH WIND       PRES   REMARKS
HAVRE          PTSUNNY   48  36  63 CALM      29.48S
LEWISTOWN      PTSUNNY   43  37  79 SE6       29.53R
N BAR RANCH    CLOUDY    41  34  75 W8G17     29.54R
CHINOOK          N/A     46  36  66 W7        29.49R
DENTON         PTSUNNY   51  23  33 W22G28    29.47R
FORT BENTON      N/A     54  25  32 MISG      29.50R
GEYSER         PTSUNNY   49  26  40 W17       29.50R
GRASS RANGE    PTSUNNY   43  38  85 W6        29.49F
JUDITH GAP       N/A     44  28  54 W14G21    29.53R
ROY            PTSUNNY   47  34  60 MISG      29.50R
STANFORD       PTSUNNY   48  19  32 W15       29.51R
WINIFRED         N/A     48  28  46 SW5       29.49F
$$

MTZ017>020-022>027-061-062-200000-
NORTHEAST MONTANA

CITY           SKY/WX    TMP DP  RH WIND       PRES   REMARKS
GLASGOW        CLOUDY    35  33  92 E12       29.47F FOG     WCI  27
JORDAN           N/A     54  36  50 N8        29.47R
SIDNEY         CLOUDY    42  36  79 N7        29.48R
WOLF POINT     CLOUDY    35  32  88 NE5       29.51R FOG
PLENTYWOOD       N/A     34  34 100 E5        29.50R
POPLAR           N/A     34  32  93 CALM      29.52R
$$

MTZ028>42-056>058-200000-
SOUTHCENTRAL AND SOUTHEAST MONTANA

CITY           SKY/WX    TMP DP  RH WIND       PRES   REMARKS
BAKER          SUNNY     53  35  50 NW8       29.44S
BILLINGS       CLOUDY    51  31  46 NW17      29.52R
LIVINGSTON     PTSUNNY   38  33  82 SW6       29.55S
MILES CITY     CLOUDY    49  36  61 CALM      29.45R
BIG TIMBER     SUNNY     45  30  57 SW14G21   29.56S
EKALAKA          N/A     57  34  42 W6        29.49R
FORSYTH          N/A     52  37  58 CALM      29.46S
HARLOWTON      PTSUNNY   44  28  54 NW12      29.53R
LAUREL           N/A     51  27  39 NW14      29.56R
$$

REGIONAL REPORTS...DAKOTAS

CITY           SKY/WX    TMP DP  RH WIND       PRES   REMARKS
WILLISTON      CLOUDY    39  32  76 CALM      29.49R
MINOT          CLOUDY    38  34  85 E8        29.50F
DICKINSON      SUNNY     52  37  56 SE3       29.42F
BEACH            N/A    N/A N/A N/A MISG        N/A
CROSBY         CLOUDY    32  32 100 E12       29.53S FOG     WCI  23
TIOGA          FOG       32  32 100 E8        29.52R VSB 1   WCI  25
WATFORD CITY     N/A     37  36  93 N5        29.48R
BISMARCK       CLOUDY    40  36  86 E10       29.49F
GRAND FORKS    MOCLDY    44  33  65 E12       29.61F
FARGO          CLOUDY    55  44  66 SE18G26   29.61S
BUFFALO SD       N/A     64  34  32 SW13      29.38R
RAPID CITY     CLOUDY    66  32  28 SW10      29.47S
$$

REGIONAL REPORTS...WYOMING/IDAHO/WASHINGTON

CITY           SKY/WX    TMP DP  RH WIND       PRES   REMARKS
GILLETTE       CLOUDY    57  32  38 SW24G30   29.47R
SHERIDAN       CLOUDY    46  33  60 SE7       29.49R
BUFFALO WY     CLOUDY    56  29  35 NW5       29.49R
CODY           CLOUDY    51  23  33 N8G17     29.57R
YELLOWSTONE LA   N/A     29  25  85 W9        29.67R WCI  20
IDAHO FALLS    LGT SNOW  34  32  92 W24G39    29.74R FOG     WCI  21
SALMON         CLOUDY    45  21  39 SW12      29.55R
BOISE          MOSUNNY   50  36  58 NW5       29.67S
SPOKANE        CLOUDY    36  34  92 S10       29.56R WCI  28
$$

REGIONAL REPORTS...ALBERTA

CITY           SKY/WX    TMP DP  RH WIND       PRES   REMARKS
EDMONTON       CLOUDY    34  30  86 NW6       29.43R WCI  29
CALGARY        CLOUDY    34  28  80 NE8       29.42R WCI  27
LETHBRIDGE     MOSUNNY   48  25  40 SW16G22   29.44R
MEDICINE HAT   PTSUNNY   50  32  50 SW9       29.44R
WATERTON GATE    N/A     37  25  60 SW22G30     N/A  WCI  27
CARDSTON         N/A     43  27  52 SW14G21     N/A
MILK RIVER       N/A     50  23  34 SW15G21     N/A
$$

REGIONAL REPORTS...SASKATCHEWAN

CITY           SKY/WX    TMP DP  RH WIND       PRES   REMARKS
SWIFT CURRENT  PTSUNNY   43  39  87 SW7       29.43R
REGINA         CLOUDY    34  30  86 SE17      29.53R WCI  23
SASKATOON      CLOUDY    36  32  87 SE14G22   29.53R WCI  27
CYPRESS HILLS    N/A     39  34  81 SW3         N/A
VAL MARIE        N/A     41  34  75 SW6         N/A
ROCKGLEN         N/A     34  32  93 S8          N/A  WCI  27
ASSINIBOIA       N/A     36  34  93 N2          N/A
$$




USA.gov is the U.S. government's official web portal to all federal, state and local government web resources and services.